When you browse on this site, cookies collect data to enhance your experience and personalize the content and advertising you see.
Visit our Privacy Policy to learn more. By continuing to use the site, you agree to this use of cookies and data.
  • In Austria
  • List of Countries
  • For 7 days
  • Water Temperature
  • Satellite Maps
  • Weather Map
  • News
  • Weather Widgets
  • user-avatar
    Login

    Hourly Weather Buenos Aires

    Today, 18 November, Sunday

    Time Temperature Precipitation Wind Pressure Humidity
    00:00 +17°C° 0 mm 5 mps 757 mmHg 64%
    01:00 +16°C° 0 mm 5 mps 758 mmHg 65%
    02:00 +15°C° 0 mm 5 mps 758 mmHg 67%
    03:00 +14°C° 0 mm 5 mps 759 mmHg 68%
    04:00 +14°C° 0 mm 5 mps 759 mmHg 68%
    05:00 +13°C° 0 mm 5 mps 760 mmHg 69%
    06:00 +15°C° 0 mm 5 mps 760 mmHg 60%
    07:00 +17°C° 0 mm 6 mps 761 mmHg 52%
    08:00 +19°C° 0 mm 6 mps 761 mmHg 43%
    09:00 +20°C° 0 mm 6 mps 761 mmHg 40%
    10:00 +21°C° 0 mm 5 mps 761 mmHg 38%
    11:00 +23°C° 0 mm 5 mps 761 mmHg 36%
    12:00 +23°C° 0 mm 4 mps 761 mmHg 36%
    13:00 +23°C° 0 mm 4 mps 761 mmHg 36%
    14:00 +25°C° 0 mm 4 mps 761 mmHg 37%
    15:00 +25°C° 0 mm 3 mps 761 mmHg 40%
    16:00 +24°C° 0 mm 3 mps 761 mmHg 44%
    17:00 +24°C° 0 mm 2 mps 761 mmHg 47%
    18:00 +23°C° 0 mm 2 mps 761 mmHg 49%
    19:00 +21°C° 0 mm 1 mps 761 mmHg 51%
    20:00 +19°C° 0 mm 1 mps 762 mmHg 53%
    21:00 +19°C° 0 mm 1 mps 762 mmHg 53%
    22:00 +18°C° 0 mm 2 mps 762 mmHg 53%
    23:00 +18°C° 0 mm 2 mps 763 mmHg 53%

    Tomorrow, 19 November, Monday

    Time Temperature Precipitation Wind Pressure Humidity
    00:00 +17°C° 0 mm 3 mps 763 mmHg 54%
    01:00 +17°C° 0 mm 3 mps 762 mmHg 55%
    02:00 +17°C° 0 mm 4 mps 762 mmHg 56%
    03:00 +15°C° 0 mm 4 mps 762 mmHg 58%
    04:00 +15°C° 0 mm 4 mps 762 mmHg 59%
    05:00 +14°C° 0 mm 4 mps 762 mmHg 61%
    06:00 +17°C° 0 mm 4 mps 762 mmHg 57%
    07:00 +19°C° 0 mm 5 mps 762 mmHg 54%
    08:00 +21°C° 0 mm 5 mps 762 mmHg 51%
    09:00 +22°C° 0 mm 5 mps 762 mmHg 47%
    10:00 +25°C° 0 mm 4 mps 762 mmHg 43%
    11:00 +27°C° 0 mm 4 mps 762 mmHg 39%
    12:00 +27°C° 0 mm 4 mps 761 mmHg 38%
    13:00 +28°C° 0 mm 4 mps 761 mmHg 37%
    14:00 +29°C° 0 mm 4 mps 760 mmHg 35%
    15:00 +28°C° 0 mm 4 mps 760 mmHg 39%
    16:00 +28°C° 0 mm 4 mps 759 mmHg 43%
    17:00 +27°C° 0 mm 4 mps 759 mmHg 46%
    18:00 +26°C° 0 mm 4 mps 759 mmHg 49%
    19:00 +23°C° 0 mm 4 mps 760 mmHg 52%
    20:00 +22°C° 0 mm 4 mps 760 mmHg 55%
    21:00 +21°C° 0 mm 4 mps 760 mmHg 58%
    22:00 +20°C° 0 mm 4 mps 761 mmHg 60%
    23:00 +20°C° 0 mm 4 mps 761 mmHg 62%

    Day after tomorrow, 20 November, Tuesday

    Time Temperature Precipitation Wind Pressure Humidity
    00:00 +19°C° 0 mm 4 mps 761 mmHg 64%
    01:00 +19°C° 0 mm 4 mps 761 mmHg 66%
    02:00 +18°C° 0 mm 4 mps 761 mmHg 67%
    03:00 +18°C° 0 mm 4 mps 761 mmHg 69%
    04:00 +18°C° 0 mm 4 mps 761 mmHg 71%
    05:00 +17°C° 0 mm 4 mps 761 mmHg 72%
    06:00 +19°C° 0 mm 4 mps 761 mmHg 67%
    07:00 +21°C° 0 mm 4 mps 761 mmHg 61%
    08:00 +23°C° 0 mm 5 mps 762 mmHg 56%
    09:00 +25°C° 0 mm 4 mps 761 mmHg 51%
    10:00 +27°C° 0 mm 4 mps 761 mmHg 46%
    11:00 +29°C° 0 mm 4 mps 761 mmHg 41%
    12:00 +29°C° 0 mm 4 mps 760 mmHg 40%
    13:00 +30°C° 0 mm 4 mps 759 mmHg 39%
    14:00 +32°C° 0 mm 4 mps 759 mmHg 38%
    15:00 +30°C° 0 mm 4 mps 758 mmHg 41%
    16:00 +30°C° 0 mm 4 mps 758 mmHg 45%
    17:00 +29°C° 0 mm 4 mps 758 mmHg 49%
    18:00 +28°C° 0 mm 4 mps 758 mmHg 53%
    19:00 +26°C° 0 mm 4 mps 758 mmHg 56%
    20:00 +25°C° 0 mm 4 mps 758 mmHg 60%
    21:00 +23°C° 0 mm 4 mps 758 mmHg 63%
    22:00 +22°C° 0 mm 4 mps 759 mmHg 65%
    23:00 +22°C° 0 mm 4 mps 759 mmHg 68%

    21 November, Wednesday

    Time Temperature Precipitation Wind Pressure Humidity
    00:00 +21°C° 0 mm 4 mps 759 mmHg 70%
    01:00 +21°C° 0 mm 4 mps 758 mmHg 72%
    02:00 +20°C° 0 mm 4 mps 758 mmHg 74%
    03:00 +20°C° 0 mm 4 mps 758 mmHg 75%
    04:00 +20°C° 0 mm 4 mps 758 mmHg 76%
    05:00 +19°C° 0 mm 4 mps 758 mmHg 76%
    06:00 +21°C° 0 mm 4 mps 758 mmHg 71%
    07:00 +23°C° 0 mm 4 mps 758 mmHg 66%
    08:00 +25°C° 0 mm 5 mps 758 mmHg 61%
    09:00 +27°C° 0 mm 4 mps 758 mmHg 56%
    10:00 +29°C° 0 mm 4 mps 757 mmHg 51%
    11:00 +32°C° 0 mm 4 mps 757 mmHg 46%
    12:00 +33°C° 0 mm 4 mps 756 mmHg 44%
    13:00 +34°C° 0 mm 4 mps 755 mmHg 42%
    14:00 +35°C° 0 mm 4 mps 754 mmHg 41%
    15:00 +34°C° 0 mm 4 mps 754 mmHg 44%
    16:00 +34°C° 0 mm 4 mps 753 mmHg 46%
    17:00 +33°C° 0 mm 4 mps 753 mmHg 49%
    18:00 +32°C° 0 mm 4 mps 753 mmHg 53%
    19:00 +29°C° 0 mm 4 mps 754 mmHg 56%
    20:00 +28°C° 0 mm 4 mps 754 mmHg 60%
    21:00 +28°C° 0 mm 4 mps 754 mmHg 62%
    22:00 +27°C° 0 mm 4 mps 754 mmHg 64%
    23:00 +27°C° 0 mm 4 mps 754 mmHg 67%

    22 November, Thursday

    Time Temperature Precipitation Wind Pressure Humidity
    00:00 +27°C° 0 mm 5 mps 753 mmHg 67%
    01:00 +27°C° 0 mm 5 mps 753 mmHg 67%
    02:00 +27°C° 0 mm 6 mps 752 mmHg 67%
    03:00 +26°C° 0.3 mm 6 mps 753 mmHg 71%
    04:00 +25°C° 0.3 mm 5 mps 754 mmHg 75%
    05:00 +25°C° 0.3 mm 5 mps 755 mmHg 79%
    06:00 +23°C° 0.4 mm 6 mps 756 mmHg 80%
    07:00 +22°C° 0.4 mm 7 mps 758 mmHg 81%
    08:00 +21°C° 0.4 mm 7 mps 759 mmHg 82%
    09:00 +21°C° 0.4 mm 7 mps 760 mmHg 78%
    10:00 +20°C° 0.4 mm 7 mps 760 mmHg 74%
    11:00 +20°C° 0.4 mm 7 mps 761 mmHg 70%
    12:00 +20°C° 0 mm 7 mps 761 mmHg 67%
    13:00 +20°C° 0 mm 8 mps 761 mmHg 64%
    14:00 +20°C° 0 mm 8 mps 761 mmHg 61%
    15:00 +20°C° 0 mm 8 mps 762 mmHg 61%
    16:00 +18°C° 0 mm 7 mps 762 mmHg 61%
    17:00 +18°C° 0 mm 7 mps 763 mmHg 61%
    18:00 +17°C° 0 mm 7 mps 763 mmHg 58%
    19:00 +16°C° 0 mm 7 mps 764 mmHg 56%
    20:00 +15°C° 0 mm 8 mps 764 mmHg 54%
    21:00 +15°C° 0 mm 7 mps 764 mmHg 55%
    22:00 +14°C° 0 mm 7 mps 764 mmHg 55%
    23:00 +14°C° 0 mm 6 mps 765 mmHg 56%

    23 November, Friday

    Time Temperature Precipitation Wind Pressure Humidity
    00:00 +13°C° 0 mm 6 mps 765 mmHg 60%
    01:00 +13°C° 0 mm 6 mps 764 mmHg 64%
    02:00 +11°C° 0 mm 6 mps 764 mmHg 67%
    03:00 +11°C° 0 mm 6 mps 764 mmHg 70%
    04:00 +12°C° 0 mm 5 mps 765 mmHg 72%
    05:00 +12°C° 0 mm 5 mps 765 mmHg 74%
    06:00 +13°C° 0 mm 5 mps 765 mmHg 71%
    07:00 +15°C° 0 mm 6 mps 765 mmHg 69%
    08:00 +17°C° 0 mm 6 mps 765 mmHg 66%
    09:00 +19°C° 0 mm 6 mps 765 mmHg 62%
    10:00 +20°C° 0 mm 6 mps 764 mmHg 58%
    11:00 +22°C° 0 mm 6 mps 764 mmHg 54%
    12:00 +22°C° 0 mm 6 mps 763 mmHg 54%
    13:00 +22°C° 0 mm 6 mps 763 mmHg 53%
    14:00 +23°C° 0 mm 6 mps 762 mmHg 52%
    15:00 +22°C° 0 mm 6 mps 762 mmHg 55%
    16:00 +22°C° 0 mm 7 mps 762 mmHg 58%
    17:00 +21°C° 0 mm 7 mps 761 mmHg 61%
    18:00 +20°C° 0 mm 7 mps 762 mmHg 64%
    19:00 +19°C° 0 mm 6 mps 762 mmHg 67%
    20:00 +19°C° 0 mm 6 mps 762 mmHg 71%
    21:00 +17°C° 0 mm 6 mps 762 mmHg 73%
    22:00 +17°C° 0 mm 6 mps 762 mmHg 75%
    23:00 +17°C° 0 mm 6 mps 762 mmHg 77%
    Show more